Weather History for KMEH - April, 2014

Change the Weather History Date:

Wednesday, April 16, 2014

  Actual Average Record
Temperature  
Mean Temperature 40 °F -  
Max Temperature 54 °F 50 °F 66 °F (2001)
Min Temperature 28 °F 27 °F 18 °F (1999)
Degree Days  
Heating Degree Days 25    
Moisture  
Dew Point 30 °F    
Average Humidity 70    
Maximum Humidity 89    
Minimum Humidity 45    
Precipitation  
Precipitation 0.00 in - - ()
Sea Level Pressure  
Sea Level Pressure 30.06 in    
Wind  
Wind Speed 1 mph (North)    
Max Wind Speed 6 mph    
Max Gust Speed -    
Visibility 10 miles    
Events      
Averages and records for this station are not official NWS values.
T = Trace of Precipitation, MM = Missing Value Source: NWS Daily Summary

Daily Weather History Graph

Daily Weather History Graph

Search for Another Location

Airport or City:

Trip Planner

Search our weather history database for the weather conditions in past years. The results will help you decide how hot, cold, wet, or windy it might be!

Date:

Astronomy

Apr. 16, 2014 Rise Set
Actual Time 6:06 AM PDT 7:41 PM PDT
Civil Twilight 5:35 AM PDT 8:12 PM PDT
Nautical Twilight 4:57 AM PDT 8:50 PM PDT
Astronomical Twilight 4:17 AM PDT 9:31 PM PDT
Moon 9:34 PM PDT (4/16) 6:53 AM PDT (4/16)
Length of Visible Light 14h 37m
Length of Day
13h 35m
Full, 98% of the Moon is Illuminated
Apr 16
Full
Apr 22
Last Quarter
Apr 28
New
May 6
First Quarter
May 14
Full

Hourly Weather History & Observations

Time (PDT) Temp. Windchill Dew Point Humidity Pressure Visibility Wind Dir Wind Speed Gust Speed Precip Events Conditions
12:56 AM 33.1 °F - 27.0 °F 78% 30.08 in 10.0 mi Calm Calm - N/A   Clear
1:56 AM 30.0 °F - 26.1 °F 85% 30.09 in 10.0 mi Calm Calm - N/A   Clear
2:56 AM 28.9 °F - 25.0 °F 85% 30.08 in 10.0 mi Calm Calm - N/A   Clear
3:56 AM 28.0 °F - 25.0 °F 88% 30.09 in 10.0 mi Calm Calm - N/A   Clear
4:56 AM 28.0 °F - 25.0 °F 88% 30.08 in 10.0 mi Calm Calm - N/A   Clear
5:56 AM 28.0 °F - 25.0 °F 88% 30.09 in 10.0 mi Calm Calm - N/A   Overcast
6:56 AM 28.9 °F - 26.1 °F 89% 30.11 in 10.0 mi Calm Calm - N/A   Overcast
7:56 AM 34.0 °F - 28.9 °F 82% 30.10 in 10.0 mi Calm Calm - N/A   Overcast
8:56 AM 42.1 °F - 32.0 °F 67% 30.09 in 10.0 mi Calm Calm - N/A   Overcast
9:33 AM 43.0 °F - 32.0 °F 65% 30.05 in 10.0 mi Calm Calm - 0.00 in   Overcast
9:56 AM 44.1 °F - 32.0 °F 63% 30.08 in 10.0 mi Calm Calm - 0.00 in   Overcast
10:03 AM 44.1 °F - 30.9 °F 60% 30.05 in 10.0 mi Calm Calm - N/A   Overcast
10:56 AM 45.0 °F 43.5 °F 33.1 °F 63% 30.09 in 10.0 mi Variable 3.5 mph - N/A   Overcast
11:56 AM 45.0 °F - 32.0 °F 60% 30.09 in 10.0 mi Calm Calm - N/A   Overcast
12:56 PM 48.0 °F - 32.0 °F 54% 30.08 in 10.0 mi Variable 3.5 mph - 0.00 in   Overcast
1:56 PM 48.9 °F - 32.0 °F 52% 30.08 in 10.0 mi Variable 5.8 mph - N/A   Overcast
2:56 PM 50.0 °F - 30.9 °F 48% 30.06 in 10.0 mi Variable 3.5 mph - N/A   Mostly Cloudy
3:56 PM 52.0 °F - 30.9 °F 45% 30.05 in 10.0 mi Calm Calm - N/A   Mostly Cloudy
4:56 PM 51.1 °F - 30.9 °F 46% 30.05 in 10.0 mi Variable 4.6 mph - N/A   Mostly Cloudy
5:56 PM 51.1 °F - 30.9 °F 46% 30.04 in 10.0 mi Variable 3.5 mph - N/A   Mostly Cloudy
6:56 PM 50.0 °F - 32.0 °F 50% 30.03 in 10.0 mi Calm Calm - N/A   Scattered Clouds
7:56 PM 43.0 °F - 33.1 °F 68% 30.03 in 10.0 mi Calm Calm - N/A   Clear
8:56 PM 37.9 °F - 33.1 °F 83% 30.02 in 10.0 mi Calm Calm - N/A   Clear
9:56 PM 37.9 °F - 33.1 °F 83% 30.02 in 10.0 mi Calm Calm - N/A   Clear
10:56 PM 37.0 °F - 33.1 °F 86% 30.02 in 10.0 mi Calm Calm - N/A   Scattered Clouds
11:56 PM 37.0 °F - 33.1 °F 86% 30.01 in 10.0 mi Calm Calm - N/A   Mostly Cloudy